Погода в Огарково

Россия / Ярославская область     58°14′14″N   38°51′54″E
темп.,
°C
ветер,
м/с
пор.,
м/с
влажн.,
%
обл.,
%
осадки,
мм/ч
давл.,
гПа
погр.,
м
27 октября, ср
ср2700:00+3юз61088100 0.0 1014348
03:00+2юз61089100 0.0 1012327
06:00+2ююз71089100 0.0 1010354
09:00+3ююз71287100 0.0 1009435
12:00+4юз81286100 0.2 1007684
15:00+4зюз91394100 3.8 1007642
18:00+5з81393100 0.1 1007759
21:00+6з81389100 0.3 1008640
28 октября, чт
чт2800:00+6з71188100 0.2 1008562
03:00+6зюз5886100 0.3 1008354
06:00+4ююз5792100 0.0 1007244
09:00+4ю3494100 1.2 1007337
12:00+5всв2293100 1.8 1009515
15:00+5ссв5893100 2.4 1012695
18:00+4ссв7108595 0.2 1018588
21:00+1св68744 0.2 1022524
29 октября, пт
пт2900:00−1св467245 0.0 1026394
03:00−1вюв3469100 0.0 1028305
06:000ююв4565100 0.0 1029328
09:000ю6864100 0.0 1029390
12:00+2ю81260100 0.1 1027477
15:00+3ююз101672100 0.1 1025607
18:00+5юз9158531 0.0 1023511
21:00+5юз8159040 0.0 1023424
30 октября, сб
сб3000:00+5юз71492100 0.0 1023350
03:00+6юз71294100 0.0 1023310
06:00+6юз7139319 0.0 1023303
09:00+6юз6119321 0.0 1024287
12:00+7юз6108655 0.0 1024239
15:00+8юз5107874 0.0 1024209
18:00+7ююз598166 0.0 1024180
21:00+6ююз6118559 0.0 1024238
31 октября, вс
вс3100:00+5ююз71287100 0.0 1023290
03:00+5ююз7138876 0.0 1023347
06:00+5ююз7138914 0.0 1021347
09:00+5юз713905 0.0 1021386
12:00+7юз610855 0.0 1021287
15:00+8юз5983100 0.0 1021216
18:00+7ююз6108898 0.0 1021185
21:00+6ююз6109296 0.0 1021197